Back to catalog

STARLINK-37336

AliveCommunicationsVLEO
NORAD 100031·PAYLOAD·🇺🇸 United States

Launched Jul 14, 2026 from Cape Canaveral Space Force Station

Loading…

Next Passes (next 24 hours)

TLE

FreshSource: Space-Track

Epoch: Sep 14, 2026, 14:56 UTC

1 A0031U 26161D   26257.62240316  .00017210  00000-0  51928-3 0  9995
2 A0031  53.1613  25.5178 0001512  91.4453 268.6723 15.34401703  9706

Track STARLINK-37336 in real time with AllMySat

Download on the App Store